Home > Time Zones > World Clock > Weather > Chad > Sarh > Past weeks

Flag Weather past 2 weeks in Sarh, Chad

Now
90 °F

Sunny.


Feels Like: 88 °F
Forecast: 73 / 96 °F
Wind: No wind

Location: Sarh Airport

Current Time: Nov 28, 2014 at 6:32:10 PM

Latest Report: Nov 28, 2014 at 5:00 PM


Visibility: 10 mi

Pressure: 29.86 "Hg

Humidity: 31%

Dew point: 55 °F

Location of SarhLocation

Historic Weather in Sarh — Graph

°F

Sarh temperature yesterday

Maximum temperature yesterday: 100 °F (at 3:00 PM)
Minimum temperature yesterday: 66 °F (at 6:00 AM)
Average temperature yesterday: 80 °F

Past Weeks' High & Low Weather Summary

 TemperatureHumidityPressure
High100 °F (Nov 27, 3:00 PM)100% (Nov 18, 4:00 AM)30.01 "Hg (Nov 18, 4:00 AM)
Low64 °F (Nov 19, 6:00 AM)16% (Nov 20, 1:00 PM)29.77 "Hg (Nov 13, 5:00 PM)
Average81 °F58%29.88 "Hg
* Reported Nov 13 5:00 PM — Nov 28 5:00 PM, Sarh, Weather by CustomWeather, © 2014

Note: Actual official high and low records may vary slightly from our data, if they occured in-between our weather recording intervals... More about our weather records

Advertising

Sarh weather history for previous 24 hours

 ConditionsComfort  
Time TempWeatherWind HumidityBarometerVisibility
5:00 PM
Nov 28
90 °FSunny.No wind31%29.86 "Hg10 mi
4:00 PM95 °FSunny.1 mph23%29.86 "Hg10 mi
3:00 PM97 °FSunny.9 mph22%29.89 "Hg10 mi
2:00 PM97 °FSunny.14 mph20%29.86 "Hg10 mi
12:00 PM93 °FExtremely hot.5 mph26%29.95 "HgN/A
11:00 AM91 °FHot.6 mph30%29.92 "HgN/A
10:00 AM86 °FPleasantly warm.2 mph38%29.92 "HgN/A
9:00 AM81 °FWarm.2 mph45%29.95 "HgN/A
8:00 AM75 °FMild.3 mph54%29.95 "HgN/A
7:00 AM70 °FMild.No wind69%29.95 "HgN/A
6:00 AM66 °FSunny.No wind88%29.95 "Hg10 mi
5:00 AM68 °FClear.No wind78%29.92 "Hg10 mi
4:00 AM70 °FClear.No wind78%29.92 "Hg10 mi
3:00 AM70 °FClear.No wind73%29.89 "Hg10 mi
2:00 AM70 °FClear.No wind73%N/A10 mi
12:00 AM72 °FClear.No wind78%29.89 "Hg10 mi
11:00 PM
Nov 27
72 °FClear.No wind78%29.89 "Hg10 mi
10:00 PM73 °FClear.No wind65%29.89 "Hg10 mi
9:00 PM75 °FClear.No wind65%29.89 "Hg10 mi
8:00 PM77 °FClear.No wind61%29.89 "Hg10 mi
7:00 PM81 °FClear.No wind58%29.86 "Hg10 mi
6:00 PM86 °FClear.No wind55%29.83 "Hg10 mi
Weather by CustomWeather, © 2014

See weather overviewHow to use our weather pages